User: anonymous   Login
Location: UBC Liquid-Mirror Observatory
(49.2876°N, 122.5728°W)
Time: 08:56:48
(UTC-07:00)
Language:

Cosmos 1743 Rocket - Orbit

View from above orbital plane
View from above orbital plane
View from above satellite
View from above satellite

Ground track
Ground track

The orbit data is extracted from the following two-line orbital elements,

1 16720U 86034B   15242.24604689  .00000202  00000-0  21752-4 0  9995
2 16720 082.5555 133.9127 0021800 107.2393 015.0039 14.83118521581882
Epoch (UTC): 30 August 2015 05:54:18
Eccentricity: 0.0021800
inclination: 82.5555°
perigee height: 604 km
apogee height: 635 km
right ascension of ascending node: 133.9127°
argument of perigee: 107.2393°
revolutions per day: 14.83118521
mean anomaly at epoch: 15.0039°
orbit number at epoch: 58188

The dashed part of the orbit path shows where the satellite is in the earth's shadow,  

DLR